Content
SEND FEEDBACK

Daily
Averages
Monthly
Summary
United States of America

STATEN ISLAND, NEW YORK


Home > North America > United States > New York
Elevation: 46 meters     Latitude: 40 35N     Longitude: 074 09W

WEATHER
 
SELECT A DAY
Number of Records: 189,642;   Date Range: 1/1/95 - 7/29/14
 
SHARE

PRINT THIS DATA

[ ← Previous Day ]
WEATHER ALMANAC - 31 JANUARY, 2013
[ Next Day → ]
[ °F ]   °C
Weather ElementAverageHighLow
Temperature9.1 °C16.7 °C (12:51 am)-1.1 °C (11:51 pm)
Dewpoint1.6 °C15 °C (12:51 am)-13.9 °C (10:51 pm)
Humidity62.7 %94 % (1:02 am)34 % (11:51 am)
Barometer994.2 hPa1009.1 hPa (11:51 pm)984.1 hPa (3:51 am)
Wind Speed43 km/h68.6 km/h (6:39 am)
Wind Gust94.5 km/h (4:03 am)
Weather ElementAverage
Visibility12.7 km
Wind DirectionWSW (240.6 °)

Weather ElementTotal
Precipitation36.83 mm
Heating Degree Days10.6 (Base 18.3)
Averaged from 32 records on 31 January, 2013
WEATHER CONDITIONS BREAKOUT
WIND DIRECTION BREAKOUT
WEATHER BY HOUR - 31 JANUARY, 2013
[ °F ]   °C
Local TimeTemperatureDewpointHumidityBarometerVisibilityWind DirectionWind SpeedGust SpeedPrecipitationEventsConditions
12:51 AM16.7 °C15 °C90 %992.2 hPa6.4 kmSouth (180°)40.7 km/h59.2 km/h2.29 mmRain-ThunderstormLight Thunderstorms and Rain
1:02 AM16 °C15 °C94 %991.5 hPa8 kmSouth (190°)31.5 km/h57.5 km/h0.25 mmRainRain
1:51 AM16.7 °C14.4 °C86 %988.8 hPa9.7 kmSouth (180°)37 km/h62.9 km/h1.78 mmRainLight Rain
2:51 AM16.7 °C14.4 °C86 %986.5 hPa9.7 kmSouth (180°)50.1 km/h76 km/h1.27 mmRainLight Rain
3:51 AM16.7 °C15 °C90 %984.1 hPa4.8 kmSouth (180°)44.4 km/h72.3 km/h4.83 mmRainRain
4:03 AM16 °C15 °C94 %986.8 hPa1.6 kmSW (230°)64.9 km/h94.5 km/h0.76 mmRainRain
4:12 AM15 °C14 °C94 %986.1 hPa4.8 kmSW (220°)38.9 km/h64.9 km/h6.35 mmRainRain
4:34 AM16 °C14 °C88 %986.1 hPa9.7 kmSW (230°)29.6 km/h42.6 km/h7.11 mmRainLight Rain
4:51 AM15.6 °C13.3 °C86 %986.1 hPa9.7 kmSSW (210°)27.8 km/h40.7 km/h7.62 mmRainLight Rain
5:04 AM15 °C13 °C88 %985.8 hPa11.3 kmSW (220°)29.6 km/h44.4 km/h0.76 mmRainLight Rain
5:51 AM14.4 °C12.2 °C87 %984.1 hPa16.1 kmSouth (190°)25.9 km/h37 km/h1.52 mmOvercast
6:30 AM14 °C12 °C88 %985.1 hPa6.4 kmWSW (240°)33.3 km/h55.5 km/h0.51 mmRainRain
6:39 AM12 °C9 °C82 %985.8 hPa4.8 kmWest (260°)68.6 km/h88.8 km/h0.76 mmRainLight Rain
6:51 AM10.6 °C6.1 °C74 %987.5 hPa16.1 kmWest (270°)48.1 km/h79.7 km/h0.76 mmOvercast
7:29 AM9 °C2 °C62 %988.5 hPa16.1 kmWest (260°)44.4 km/h55.5 km/hMostly Cloudy
7:51 AM8.3 °C1.1 °C61 %989.2 hPa16.1 kmWest (260°)50.1 km/h61.2 km/h0.25 mmMostly Cloudy
8:51 AM7.8 °C-1.1 °C54 %992.6 hPa16.1 kmWest (270°)62.9 km/h77.7 km/hMostly Cloudy
9:51 AM6.7 °C-3.9 °C47 %994.2 hPa16.1 kmWest (270°)51.8 km/h83.4 km/hScattered Clouds
10:51 AM7.2 °C-6.1 °C39 %995.6 hPa16.1 kmWest (260°)53.8 km/h66.6 km/hScattered Clouds
11:51 AM7.8 °C-7.2 °C34 %996.3 hPa16.1 kmWest (280°)53.8 km/h70.3 km/hScattered Clouds
12:51 PM7.8 °C-7.2 °C34 %996.6 hPa16.1 kmWest (260°)50.1 km/h68.6 km/hScattered Clouds
1:51 PM7.2 °C-7.2 °C36 %998 hPa16.1 kmWSW (250°)37 km/h68.6 km/hScattered Clouds
2:51 PM6.7 °C-7.8 °C35 %999.3 hPa16.1 kmWest (260°)44.4 km/h68.6 km/hScattered Clouds
3:51 PM5.6 °C-9.4 °C34 %1000.7 hPa16.1 kmWest (270°)42.6 km/h72.3 km/hScattered Clouds
4:51 PM3.9 °C-8.3 °C41 %1002.4 hPa16.1 kmWest (270°)50.1 km/h64.9 km/hScattered Clouds
5:51 PM2.2 °C-10.6 °C39 %1004.7 hPa16.1 kmWest (260°)46.3 km/h70.3 km/h0 mmPartly Cloudy
6:51 PM1.7 °C-10.6 °C40 %1006.1 hPa16.1 kmWSW (250°)38.9 km/h48.1 km/hPartly Cloudy
7:51 PM0.6 °C-9.4 °C48 %1006.8 hPa16.1 kmWest (270°)33.3 km/h50.1 km/hScattered Clouds
8:51 PM0 °C-7.2 °C59 %1007.5 hPa16.1 kmWSW (250°)27.8 km/h42.6 km/h0 mmScattered Clouds
9:51 PM0 °C-12.2 °C40 %1008.1 hPa16.1 kmWest (260°)46.3 km/h59.2 km/hPartly Cloudy
10:51 PM-0.6 °C-13.9 °C37 %1008.5 hPa16.1 kmWest (260°)44.4 km/h57.5 km/hPartly Cloudy
11:51 PM-1.1 °C-13.3 °C40 %1009.1 hPa16.1 kmWest (260°)24.1 km/hPartly Cloudy
Hourly data recorded from KEWR, located 0 kilometers away from Staten Island, New York







STORIES FROM OUR PARTNERS